Regional Weather Roundup
Issued by NWS

Home | Current Version | Previous Version | Graphics & Text | Print | Product List | Glossary On
Versions: 1 2 3 4 5 6 7 8 9 10 11 12 13 14 15 16 17 18 19 20 21 22 23 24 25 26 27
000
ASUS45 KBOI 091910
RWRID

IDAHO REGIONAL WEATHER ROUNDUP
NATIONAL WEATHER SERVICE BOISE ID
1200 PM MST FRI DEC 09 2016

NOTE: "FAIR" INDICATES FEW OR NO CLOUDS BELOW 12000 FEET
WITH NO SIGNIFICANT WEATHER AND/OR OBSTRUCTIONS TO VISIBILITY

IDZ012-014-092000-
SOUTHWEST IDAHO


CITY           SKY/WX    TMP DP  RH WIND       PRES   REMARKS
BOISE          MIX PCPN  29  26  89 NW6       30.14S FOG     WCI  23
CALDWELL       MIX PCPN  29  25  85 SW3       30.17F
MOUNTAIN HOME  LGT RAIN  29  28  94 SE3       30.13S
$$

IDZ016-017-092000-
SOUTHCENTRAL IDAHO


CITY           SKY/WX    TMP DP  RH WIND       PRES   REMARKS
JEROME         LGT RAIN  35  33  92 N12G17    30.12F WCI  27
TWIN FALLS     RAIN      36  33  89 SE5       30.12F FOG     WCI  32
$$

IDZ019>023-092000-
SOUTHEAST IDAHO


CITY           SKY/WX    TMP DP  RH WIND       PRES   REMARKS
IDAHO FALLS    CLOUDY    22  18  85 N3        30.15F FOG
POCATELLO      LGT SNOW  23  21  92 NE5       30.16F VSB 1   WCI  17
REXBURG        LGT SNOW  23  21  92 CALM      30.13F FOG
$$

IDZ006-010-011-018-031-032-092000-
CENTRAL IDAHO MOUNTAINS


CITY           SKY/WX    TMP DP  RH WIND       PRES   REMARKS
MCCALL         SNOW      25  21  85 CALM      30.01F VSB 1/2
HAILEY         SNOW      27  25  93 CALM      30.10F VSB 1/2
STANLEY          N/A     33  31  92 VRB7      30.01F WCI  27
SALMON         CLOUDY    18  12  79 CALM      30.13F
CHALLIS        SNOW      16  15  96 CALM      30.07F VSB 1/2
$$

IDZ002-004-006-007-026-092000-
NORTHERN IDAHO


CITY           SKY/WX    TMP DP  RH WIND       PRES   REMARKS
LEWISTON       CLOUDY    27  24  89 W3        30.11F
LOWELL           N/A     27  20  75 N7        30.19F WCI  19
COEUR D`ALENE  LGT SNOW  19  11  70 N18       30.13F WCI   4
MULLAN PASS    SNOW      10   8  92 VRB5      29.90F VSB 1/4 WCI   2
$$




USA.gov is the U.S. government's official web portal to all federal, state and local government web resources and services.